| time (UTC) | temp F | wind direction | speed knots | gust knots | rain 1hr in | rain 24hr in | rain mn in | humidity % | barometer mb |
| 20260506134451 | 61 | 198 | 7.0 | 19.1 | 0.00 | 0.00 | 0.00 | 82 | 1017.2 |
| 20260506133551 | 61 | 194 | 8.7 | 16.5 | 0.00 | 0.00 | 0.00 | 84 | 1017.0 |
| 20260506132650 | 60 | 201 | 7.8 | 17.4 | 0.00 | 0.00 | 0.00 | 84 | 1016.9 |
| 20260506130851 | 60 | 198 | 7.8 | 18.2 | 0.00 | 0.00 | 0.00 | 84 | 1016.9 |
| 20260506125950 | 60 | 202 | 7.8 | 18.2 | 0.00 | 0.00 | 0.00 | 84 | 1017.0 |
| 20260506125051 | 60 | 201 | 9.6 | 18.2 | 0.00 | 0.00 | 0.00 | 84 | 1016.8 |
| 20260506124150 | 61 | 195 | 7.8 | 18.2 | 0.00 | 0.00 | 0.00 | 82 | 1017.1 |
| 20260506123250 | 61 | 207 | 9.6 | 20.9 | 0.00 | 0.00 | 0.00 | 83 | 1017.2 |
| 20260506122350 | 61 | 201 | 8.7 | 16.5 | 0.00 | 0.00 | 0.00 | 83 | 1017.3 |
| 20260506121451 | 61 | 201 | 6.1 | 14.8 | 0.00 | 0.00 | 0.00 | 83 | 1017.4 |
| 20260506120550 | 61 | 206 | 6.1 | 16.5 | 0.00 | 0.00 | 0.00 | 84 | 1017.3 |
| 20260506114751 | 60 | 205 | 7.8 | 20.0 | 0.00 | 0.00 | 0.00 | 84 | 1017.2 |
| 20260506113851 | 60 | 210 | 7.8 | 16.5 | 0.00 | 0.00 | 0.00 | 85 | 1017.1 |
| 20260506112951 | 59 | 209 | 6.1 | 16.5 | 0.00 | 0.00 | 0.00 | 85 | 1017.2 |
| 20260506112050 | 59 | 208 | 6.1 | 13.9 | 0.00 | 0.00 | 0.00 | 86 | 1017.4 |
| 20260506111151 | 58 | 206 | 6.1 | 13.0 | 0.00 | 0.00 | 0.00 | 87 | 1017.3 |
| 20260506110251 | 58 | 205 | 6.1 | 15.6 | 0.00 | 0.00 | 0.00 | 88 | 1017.3 |
| 20260506105350 | 58 | 204 | 6.1 | 15.6 | 0.00 | 0.00 | 0.00 | 88 | 1017.2 |
| 20260506103550 | 57 | 193 | 7.0 | 14.8 | 0.00 | 0.00 | 0.00 | 89 | 1017.1 |
| 20260506102650 | 57 | 199 | 6.1 | 13.0 | 0.00 | 0.00 | 0.00 | 89 | 1017.2 |
| 20260506101750 | 57 | 201 | 6.1 | 17.4 | 0.00 | 0.00 | 0.00 | 89 | 1017.2 |
| 20260506100850 | 57 | 200 | 7.0 | 14.8 | 0.00 | 0.00 | 0.00 | 89 | 1017.2 |
| 20260506095950 | 57 | 200 | 7.0 | 16.5 | 0.00 | 0.00 | 0.00 | 89 | 1017.2 |
| 20260506095050 | 57 | 200 | 6.1 | 14.8 | 0.00 | 0.00 | 0.00 | 89 | 1017.1 |
| 20260506094151 | 57 | 198 | 7.0 | 13.9 | 0.00 | 0.00 | 0.00 | 89 | 1017.1 |
| 20260506093249 | 57 | 198 | 6.1 | 14.8 | 0.00 | 0.00 | 0.00 | 89 | 1017.1 |
| 20260506092349 | 57 | 202 | 6.1 | 13.0 | 0.00 | 0.00 | 0.00 | 89 | 1017.1 |
| 20260506091449 | 57 | 201 | 6.1 | 14.8 | 0.00 | 0.00 | 0.00 | 89 | 1017.1 |
| 20260506090549 | 57 | 202 | 6.1 | 14.8 | 0.00 | 0.00 | 0.00 | 89 | 1017.2 |
| 20260506085649 | 57 | 203 | 7.0 | 13.9 | 0.00 | 0.00 | 0.00 | 88 | 1017.3 |
| 20260506083849 | 57 | 204 | 6.1 | 13.9 | 0.00 | 0.00 | 0.00 | 88 | 1017.4 |
| 20260506082949 | 57 | 197 | 7.0 | 14.8 | 0.00 | 0.00 | 0.00 | 88 | 1017.4 |
| 20260506082050 | 57 | 196 | 7.0 | 13.9 | 0.00 | 0.00 | 0.00 | 87 | 1017.5 |
| 20260506081150 | 57 | 205 | 7.0 | 16.5 | 0.00 | 0.00 | 0.00 | 87 | 1017.5 |
| 20260506080249 | 57 | 203 | 6.1 | 14.8 | 0.00 | 0.00 | 0.00 | 87 | 1017.4 |
| 20260506072650 | 58 | 209 | 7.0 | 13.9 | 0.00 | 0.00 | 0.00 | 86 | 1017.6 |
| 20260506071749 | 58 | 209 | 7.0 | 14.8 | 0.00 | 0.00 | 0.00 | 86 | 1017.7 |
| 20260506070849 | 58 | 213 | 8.7 | 20.9 | 0.00 | 0.00 | 0.00 | 85 | 1017.7 |
| 20260506062349 | 59 | 214 | 8.7 | 19.1 | 0.00 | 0.00 | 0.00 | 84 | 1017.6 |
| 20260506061449 | 59 | 215 | 8.7 | 18.2 | 0.00 | 0.00 | 0.00 | 84 | 1017.6 |
| 20260506051148 | 59 | 212 | 7.8 | 18.2 | 0.00 | 0.00 | 0.00 | 82 | 1017.9 |
| 20260506050248 | 60 | 210 | 7.8 | 15.6 | 0.00 | 0.00 | 0.00 | 81 | 1017.9 |
| 20260506044448 | 60 | 213 | 8.7 | 20.9 | 0.00 | 0.00 | 0.00 | 81 | 1017.9 |
| 20260506043548 | 60 | 219 | 8.7 | 20.9 | 0.00 | 0.00 | 0.00 | 80 | 1017.9 |
| 20260506042649 | 60 | 218 | 9.6 | 19.1 | 0.00 | 0.00 | 0.00 | 80 | 1018.1 |
| 20260506041749 | 60 | 219 | 9.6 | 21.7 | 0.00 | 0.00 | 0.00 | 80 | 1018.0 |
| 20260506040848 | 60 | 213 | 9.6 | 17.4 | 0.00 | 0.00 | 0.00 | 80 | 1018.0 |
| 20260506035048 | 60 | 205 | 8.7 | 20.0 | 0.00 | 0.00 | 0.00 | 80 | 1018.0 |
| 20260506034148 | 60 | 206 | 8.7 | 18.2 | 0.00 | 0.00 | 0.00 | 79 | 1018.0 |
| 20260506033249 | 60 | 210 | 9.6 | 21.7 | 0.00 | 0.00 | 0.00 | 79 | 1018.0 |
| 20260506032348 | 60 | 209 | 9.6 | 19.1 | 0.00 | 0.00 | 0.00 | 79 | 1018.0 |
| 20260506031448 | 60 | 212 | 8.7 | 19.1 | 0.00 | 0.00 | 0.00 | 79 | 1017.9 |
| 20260506025649 | 61 | 214 | 7.8 | 16.5 | 0.00 | 0.00 | 0.00 | 79 | 1018.0 |
| 20260506024748 | 61 | 213 | 9.6 | 21.7 | 0.00 | 0.00 | 0.00 | 79 | 1018.0 |
| 20260506022948 | 61 | 217 | 9.6 | 22.6 | 0.00 | 0.00 | 0.00 | 78 | 1018.1 |
| 20260506022048 | 61 | 214 | 10.4 | 20.9 | 0.00 | 0.00 | 0.00 | 77 | 1018.0 |
| 20260506021148 | 61 | 219 | 9.6 | 20.0 | 0.00 | 0.00 | 0.00 | 77 | 1018.0 |
| 20260506020248 | 61 | 211 | 9.6 | 20.0 | 0.00 | 0.00 | 0.00 | 76 | 1018.0 |
| 20260506015348 | 62 | 208 | 8.7 | 20.9 | 0.00 | 0.00 | 0.00 | 75 | 1017.9 |
| 20260506014449 | 62 | 211 | 9.6 | 19.1 | 0.00 | 0.00 | 0.00 | 73 | 1018.0 |
| 20260506013548 | 63 | 215 | 11.3 | 25.2 | 0.00 | 0.00 | 0.00 | 71 | 1017.8 |
| 20260506012647 | 63 | 220 | 10.4 | 25.2 | 0.00 | 0.00 | 0.00 | 70 | 1017.8 |
| 20260506010847 | 64 | 216 | 11.3 | 24.3 | 0.00 | 0.00 | 0.00 | 70 | 1017.3 |
| 20260506005048 | 63 | 218 | 12.2 | 25.2 | 0.00 | 0.00 | 0.00 | 71 | 1017.1 |
| 20260506004147 | 62 | 219 | 11.3 | 25.2 | 0.00 | 0.00 | 0.00 | 72 | 1017.0 |
| 20260506002347 | 63 | 214 | 10.4 | 22.6 | 0.00 | 0.00 | 0.00 | 72 | 1017.0 |
| 20260506001447 | 63 | 211 | 11.3 | 20.9 | 0.00 | 0.00 | 0.00 | 71 | 1016.8 |
| 20260506000547 | 63 | 221 | 9.6 | 19.1 | 0.00 | 0.00 | 0.00 | 71 | 1016.7 |
| 20260505235648 | 63 | 214 | 10.4 | 25.2 | 0.00 | 0.00 | 0.00 | 71 | 1016.5 |
| 20260505233848 | 63 | 220 | 8.7 | 21.7 | 0.00 | 0.00 | 0.00 | 71 | 1016.4 |
| 20260505232947 | 63 | 214 | 7.8 | 21.7 | 0.00 | 0.00 | 0.00 | 71 | 1016.4 |
| 20260505232048 | 63 | 205 | 7.0 | 18.2 | 0.00 | 0.00 | 0.00 | 71 | 1016.2 |
| 20260505231147 | 63 | 209 | 7.8 | 18.2 | 0.00 | 0.00 | 0.00 | 70 | 1016.0 |
| 20260505230248 | 64 | 196 | 7.8 | 16.5 | 0.00 | 0.00 | 0.00 | 68 | 1016.0 |
| 20260505222647 | 65 | 205 | 7.8 | 15.6 | 0.00 | 0.00 | 0.00 | 67 | 1015.6 |
| 20260505221747 | 65 | 213 | 9.6 | 20.9 | 0.00 | 0.00 | 0.00 | 67 | 1015.7 |
| 20260505220847 | 66 | 207 | 11.3 | 23.5 | 0.00 | 0.00 | 0.00 | 66 | 1015.6 |
| 20260505215947 | 66 | 208 | 8.7 | 23.5 | 0.00 | 0.00 | 0.00 | 65 | 1015.5 |
| 20260505215047 | 66 | 205 | 8.7 | 19.1 | 0.00 | 0.00 | 0.00 | 64 | 1015.6 |
| 20260505214148 | 67 | 195 | 8.7 | 17.4 | 0.00 | 0.00 | 0.00 | 64 | 1015.4 |
| 20260505213247 | 66 | 204 | 9.6 | 20.0 | 0.00 | 0.00 | 0.00 | 65 | 1015.3 |
| 20260505212347 | 66 | 206 | 8.7 | 19.1 | 0.00 | 0.00 | 0.00 | 65 | 1015.3 |
| 20260505211447 | 66 | 196 | 9.6 | 18.2 | 0.00 | 0.00 | 0.00 | 65 | 1015.3 |
| 20260505205647 | 67 | 199 | 8.7 | 20.0 | 0.00 | 0.00 | 0.00 | 64 | 1015.2 |
| 20260505203847 | 67 | 186 | 8.7 | 14.8 | 0.00 | 0.00 | 0.00 | 66 | 1015.2 |
| 20260505202946 | 66 | 181 | 8.7 | 17.4 | 0.00 | 0.00 | 0.00 | 66 | 1015.3 |
| 20260505202047 | 66 | 192 | 7.0 | 16.5 | 0.00 | 0.00 | 0.00 | 66 | 1015.6 |
| 20260505200246 | 67 | 198 | 8.7 | 19.1 | 0.00 | 0.00 | 0.00 | 66 | 1015.6 |
| 20260505195347 | 67 | 189 | 7.8 | 17.4 | 0.00 | 0.00 | 0.00 | 65 | 1015.7 |
| 20260505194447 | 67 | 190 | 8.7 | 19.1 | 0.00 | 0.00 | 0.00 | 66 | 1015.6 |
| 20260505193546 | 67 | 202 | 7.0 | 15.6 | 0.00 | 0.00 | 0.00 | 66 | 1015.7 |
| 20260505192646 | 66 | 209 | 8.7 | 17.4 | 0.00 | 0.00 | 0.00 | 67 | 1016.0 |
| 20260505191746 | 66 | 193 | 9.6 | 20.0 | 0.00 | 0.00 | 0.00 | 66 | 1016.1 |
| 20260505190847 | 67 | 186 | 9.6 | 18.2 | 0.00 | 0.00 | 0.00 | 66 | 1016.3 |
| 20260505185947 | 67 | 174 | 10.4 | 17.4 | 0.00 | 0.00 | 0.00 | 66 | 1016.4 |
| 20260505185046 | 67 | 176 | 9.6 | 20.0 | 0.00 | 0.00 | 0.00 | 66 | 1016.5 |
| 20260505184146 | 67 | 181 | 9.6 | 20.0 | 0.00 | 0.00 | 0.00 | 66 | 1016.4 |
| 20260505183247 | 68 | 176 | 7.8 | 16.5 | 0.00 | 0.00 | 0.00 | 65 | 1016.5 |
| 20260505182346 | 67 | 181 | 8.7 | 14.8 | 0.00 | 0.00 | 0.00 | 66 | 1016.6 |
| 20260505181446 | 68 | 173 | 7.8 | 15.6 | 0.00 | 0.00 | 0.00 | 66 | 1016.6 |
| 20260505175646 | 68 | 185 | 7.8 | 16.5 | 0.00 | 0.00 | 0.00 | 66 | 1016.8 |
| 20260505174746 | 67 | 206 | 7.8 | 16.5 | 0.00 | 0.00 | 0.00 | 67 | 1016.8 |
| 20260505173846 | 67 | 200 | 8.7 | 18.2 | 0.00 | 0.00 | 0.00 | 68 | 1016.8 |
| 20260505172946 | 67 | 201 | 8.7 | 15.6 | 0.00 | 0.00 | 0.00 | 67 | 1016.9 |
| 20260505172046 | 67 | 205 | 8.7 | 15.6 | 0.00 | 0.00 | 0.00 | 66 | 1017.0 |
| 20260505170246 | 68 | 177 | 7.8 | 14.8 | 0.00 | 0.00 | 0.00 | 67 | 1016.8 |
| 20260505165346 | 68 | 181 | 7.0 | 14.8 | 0.00 | 0.00 | 0.00 | 66 | 1017.0 |
| 20260505164446 | 67 | 199 | 7.8 | 15.6 | 0.00 | 0.00 | 0.00 | 66 | 1017.2 |
| 20260505163545 | 68 | 182 | 7.8 | 13.0 | 0.00 | 0.00 | 0.00 | 65 | 1017.1 |
| 20260505162645 | 69 | 186 | 7.8 | 15.6 | 0.00 | 0.00 | 0.00 | 64 | 1017.2 |
| 20260505161745 | 70 | 221 | 6.1 | 13.9 | 0.00 | 0.00 | 0.00 | 63 | 1017.3 |
| 20260505160845 | 68 | 216 | 7.0 | 13.9 | 0.00 | 0.00 | 0.00 | 64 | 1017.4 |
| 20260505153245 | 68 | 193 | 5.2 | 10.4 | 0.00 | 0.00 | 0.00 | 67 | 1017.8 |
| 20260505150545 | 66 | 206 | 7.0 | 16.5 | 0.00 | 0.00 | 0.00 | 69 | 1018.1 |
| 20260505140245 | 65 | 205 | 5.2 | 12.2 | 0.00 | 0.00 | 0.00 | 70 | 1017.9 |